Terug naar catalogus

INTELSAT 25

PROTOSTAR 1

ActiefCommunicatieGEO
NORAD 33153·PAYLOAD· XX

Gelanceerd Jul 7, 2008 vanaf Guiana Space Centre

Loading…

TLE

VersSource: Space-Track

Epoch: Sep 14, 2026, 14:11 UTC

1 33153U 08034A   26257.59165441  .00000015  00000-0  00000-0 0  9993
2 33153   2.9370  79.2314 0007327 108.1451 102.6646  0.99031922 66577

Volg INTELSAT 25 in realtime met AllMySat

Download on the App Store